DW5891 Weather Reports


time (UTC)temp
F
wind
direction
speed
knots
gust
knots
rain 1hr
in
rain 24hr
in
rain mn
in
humidity
%
barometer
mb
20260906220040 83 317 3.5 0.0 0.00 0.00 0.00 60 997.5
20260906214536 82 320 5.2 0.0 0.00 0.00 0.00 62 997.8
20260906213034 82 306 4.3 0.0 0.00 0.00 0.00 64 997.9
20260906211528 81 36 2.6 0.0 0.00 0.00 0.00 66 998.3
20260906204523 79 39 3.5 0.0 0.00 0.00 0.00 70 998.9
20260906203018 78 24 4.3 0.0 0.00 0.00 0.00 73 999.3
20260906201515 76 34 4.3 0.0 0.00 0.00 0.00 76 999.5
20260906200012 74 281 6.1 0.0 0.00 0.00 0.00 80 999.5
20260906194510 74 5 7.8 0.0 0.00 0.00 0.00 81 999.5
20260906193009 74 296 6.1 0.0 0.00 0.00 0.00 82 999.8
20260906191509 74 289 7.0 0.0 0.00 0.00 0.00 82 1000.0
20260906190006 73 332 5.2 0.0 0.00 0.00 0.00 84 1000.2
20260906184503 72 263 1.7 0.0 0.00 0.00 0.00 85 1000.4
20260906183002 72 319 1.7 0.0 0.00 0.00 0.00 86 1000.4
20260906181600 71 225 3.5 0.0 0.00 0.00 0.00 87 1000.6
20260906180057 70 246 1.7 0.0 0.00 0.00 0.00 89 1000.6
20260906174555 70 238 3.5 0.0 0.00 0.00 0.00 90 1000.7
20260906173154 70 276 3.5 0.0 0.00 0.00 0.00 90 1000.7
20260906171555 69 335 4.3 0.0 0.00 0.00 0.00 92 1000.5
20260906170055 69 10 5.2 0.0 0.00 0.00 0.00 93 1000.4
20260906164551 68 346 5.2 0.0 0.00 0.00 0.00 94 1000.5
20260906163051 68 332 5.2 0.0 0.00 0.00 0.00 95 1000.7
20260906161550 67 346 5.2 0.0 0.00 0.00 0.00 96 1000.6
20260906160105 67 9 6.1 0.0 0.00 0.00 0.00 96 1000.4
20260906154557 67 19 3.5 0.0 0.00 0.00 0.00 96 1000.3
20260906153048 66 14 4.3 0.0 0.00 0.00 0.00 96 1000.3
20260906151549 66 24 4.3 0.0 0.00 0.00 0.00 96 999.8
20260906150056 66 13 3.5 0.0 0.00 0.00 0.00 95 999.9
20260906144546 66 27 3.5 0.0 0.00 0.00 0.00 95 1000.3
20260906143046 65 16 6.1 0.0 0.00 0.00 0.00 95 1000.3
20260906141548 66 5 1.7 0.0 0.00 0.00 0.00 95 1000.6
20260906140045 66 61 1.7 0.0 0.00 0.00 0.00 95 1000.6
20260906134555 65 101 0.0 0.0 0.00 0.00 0.00 95 1000.6
20260906133106 65 109 4.3 0.0 0.00 0.00 0.00 96 1000.6
20260906131543 65 29 5.2 0.0 0.00 0.00 0.00 95 999.9
20260906130042 65 332 12.2 0.0 0.00 0.00 0.00 95 999.6
20260906124538 65 346 5.2 0.0 0.00 0.00 0.00 95 999.8
20260906123038 65 17 0.9 0.0 0.00 0.00 0.00 95 1001.5
20260906121537 65 17 0.9 0.0 0.00 0.00 0.00 95 1002.1
20260906120036 65 12 2.6 0.0 0.00 0.00 0.00 95 1001.7
20260906114533 65 345 7.0 0.0 0.00 0.00 0.00 95 1000.9
20260906113032 65 300 4.3 0.0 0.00 0.00 0.00 95 1001.0
20260906111537 65 310 5.2 0.0 0.00 0.00 0.00 95 1001.1
20260906110034 64 275 1.7 0.0 0.00 0.00 0.00 94 1001.3
20260906104537 64 331 2.6 0.0 0.00 0.00 0.00 94 1001.1
20260906103034 64 279 2.6 0.0 0.00 0.00 0.00 95 1001.2
20260906101532 64 236 3.5 0.0 0.00 0.00 0.00 94 1001.3
20260906100029 64 53 0.9 0.0 0.00 0.00 0.00 94 1000.8
20260906094527 64 69 0.0 0.0 0.00 0.00 0.00 94 1000.5
20260906093029 63 328 0.0 0.0 0.00 0.00 0.00 93 1000.3
20260906091525 64 328 0.9 0.0 0.00 0.00 0.00 93 1000.4
20260906090026 64 328 0.9 0.0 0.00 0.00 0.00 93 1000.4
20260906084518 64 328 2.6 0.0 0.00 0.00 0.00 92 1000.3
20260906083015 66 360 1.7 0.0 0.00 0.00 0.00 92 1000.3
20260906081513 66 30 1.7 0.0 0.00 0.00 0.00 92 1000.6
20260906080013 66 22 1.7 0.0 0.00 0.00 0.00 91 1000.8
20260906074509 66 24 0.9 0.0 0.00 0.00 0.00 91 1000.9
20260906073017 66 28 0.0 0.0 0.00 0.00 0.00 90 1001.0
20260906071506 67 29 0.9 0.0 0.00 0.00 0.00 89 1000.9
20260906070005 67 29 0.0 0.0 0.00 0.00 0.00 89 1001.0
20260906064503 68 13 0.0 0.0 0.00 0.00 0.00 88 1001.0
20260906063003 68 5 2.6 0.0 0.00 0.00 0.00 88 1000.9
20260906061600 69 17 2.6 0.0 0.00 0.00 0.00 88 1001.0
20260906060058 69 26 2.6 0.0 0.00 0.00 0.00 87 1001.1
20260906054606 69 5 4.3 0.0 0.00 0.00 0.00 87 1001.2
20260906053056 69 346 4.3 0.0 0.00 0.00 0.00 85 1001.3
20260906051556 70 5 4.3 0.0 0.00 0.00 0.00 85 1001.4
20260906050119 70 299 2.6 0.0 0.00 0.00 0.00 84 1001.6
20260906044554 70 329 1.7 0.0 0.00 0.00 0.00 84 1001.5
20260906043057 70 317 1.7 0.0 0.00 0.00 0.00 83 1001.4
20260906041554 71 325 0.9 0.0 0.00 0.00 0.00 81 1001.5
20260906034553 72 5 1.7 0.0 0.00 0.00 0.00 79 1001.7
20260906033103 73 340 2.6 0.0 0.00 0.00 0.00 78 1001.6
20260906031551 72 15 2.6 0.0 0.00 0.00 0.00 79 1001.7
20260906030050 72 346 0.9 0.0 0.00 0.00 0.00 78 1001.5
20260906024550 72 360 1.7 0.0 0.00 0.00 0.00 77 1001.4
20260906023047 73 5 0.9 0.0 0.00 0.00 0.00 76 1001.3
20260906021551 74 5 0.9 0.0 0.00 0.00 0.00 74 1001.1
20260906020051 75 5 0.9 0.0 0.00 0.00 0.00 72 1000.8
20260906014553 76 9 2.6 0.0 0.00 0.00 0.00 71 1000.7
20260906013041 77 17 3.5 0.0 0.00 0.00 0.00 69 1000.5
20260906011539 78 15 5.2 0.0 0.00 0.00 0.00 68 1000.3
20260906010037 79 5 7.0 0.0 0.00 0.00 0.00 66 999.9
20260906004538 81 19 7.0 0.0 0.00 0.00 0.00 64 999.7
20260906003036 82 5 7.0 0.0 0.00 0.00 0.00 63 999.6
20260906001535 83 13 6.1 0.0 0.00 0.00 0.00 62 999.4
20260906000040 83 5 6.1 0.0 0.00 0.00 0.00 62 999.4
20260905234533 84 5 7.8 0.0 0.00 0.00 0.00 61 999.2
20260905233039 85 5 7.0 0.0 0.00 0.00 0.00 60 999.0
20260905231540 85 325 7.0 0.0 0.00 0.00 0.00 59 998.9
20260905230036 85 324 5.2 0.0 0.00 0.00 0.00 58 998.9
20260905224531 85 345 6.1 0.0 0.00 0.00 0.00 59 998.9
20260905223031 83 343 6.1 0.0 0.00 0.00 0.00 59 999.1
20260905221533 84 331 6.1 0.0 0.00 0.00 0.00 58 999.1